RH
69 74 76 69 69 70 74 68 55 49 50 53 37 21 11 12 14 19 21 23 21 25 37 44 50 52 53 54 48 42 56 44 34 28 31 42 45 44 35 20 11 9 7
75 71 76 78 77 75 78 78 58 50 46 49 54 39 22 13 12 14 19 21 22 20 29 42 49 52 54 58 57 52 66 38 28 24 27 30 29 33 26 20 12 8 6
77 80 79 81 75 81 85 76 71 57 48 46 43 52 43 27 16 13 15 20 22 20 21 37 46 50 54 57 56 54 52 42 28 24 21 21 20 21 22 21 11 9 7
72 77 82 81 82 82 86 80 79 70 58 47 42 42 55 44 30 20 15 15 20 21 19 28 44 49 52 59 60 52 54 46 30 28 24 23 20 17 16 17 16 10 9
50 59 76 76 74 87 88 87 84 84 70 59 50 44 47 57 48 33 25 16 16 20 20 20 38 48 50 57 60 54 52 48 39 40 34 28 24 18 14 13 15 14 11
42 52 64 70 60 71 90 90 86 87 86 72 60 52 48 47 56 55 42 30 18 17 19 19 25 45 50 52 54 59 57 49 50 47 42 31 25 21 15 14 14 15 12
43 48 49 58 53 49 77 96 94 91 88 94 80 66 55 50 48 48 58 50 37 20 17 18 19 34 50 51 53 54 60 55 56 54 46 31 28 22 16 14 13 14 12
20 34 40 42 46 50 67 88 94 93 90 93 98 93 74 64 59 52 57 57 51 36 24 20 20 21 40 51 53 53 56 61 60 59 50 34 41 31 23 16 13 12 12
15 15 29 37 47 54 62 79 91 94 86 82 96 99 92 78 72 63 63 60 57 52 43 28 21 21 26 47 53 53 53 56 60 60 55 39 49 48 48 46 28 15 13
17 14 14 19 35 49 60 71 78 90 87 72 85 97 99 92 86 76 71 69 66 58 53 47 34 22 24 36 49 53 54 54 58 66 62 46 55 54 55 49 47 38 34
22 19 15 21 28 34 50 58 75 82 81 75 78 92 100 97 97 91 80 73 75 62 71 67 53 36 27 33 36 46 54 55 56 60 62 62 54 59 58 56 54 54 54
23 22 19 17 17 30 33 57 64 66 72 89 79 81 92 96 98 98 91 85 85 80 82 83 73 55 36 42 44 50 55 58 59 57 63 62 61 63 64 62 60 58 55
20 20 18 18 17 17 23 34 59 61 66 90 76 76 78 85 96 99 100 94 87 80 91 86 84 99 65 53 57 45 50 53 56 66 63 60 67 66 68 70 69 63 65
11 12 12 13 14 16 25 31 47 72 78 98 97 97 98 95 89 97 100 99 99 98 97 83 89 100 98 100 97 61 52 62 73 70 68 63 63 87 74 75 76 71 74
16 16 15 14 12 11 11 21 35 46 53 72 70 72 66 66 85 98 97 91 99 100 100 94 100 100 100 98 99 97 98 97 89 70 66 63 66 71 92 80 82 85 84
26 20 24 29 31 26 26 42 49 40 50 68 85 80 85 94 95 91 97 82 90 94 100 96 98 100 98 96 95 77 87 80 79 77 79 64 66 72 80 96 90 96 94
40 34 35 41 43 39 29 20 54 69 60 53 59 91 91 98 84 99 97 85 99 89 98 100 96 88 79 61 62 53 53 65 83 88 79 74 64 75 85 88 94 99 100
32 30 31 34 34 28 23 21 19 26 64 65 57 59 69 98 98 99 94 92 99 97 100 97 81 63 62 54 56 53 50 57 76 88 79 100 90 74 75 91 99 98 95
52 47 43 40 38 36 34 34 30 24 18 47 60 65 76 83 98 98 100 99 97 98 98 96 64 57 48 45 39 65 86 98 99 97 100 96 98 97 96 98 100 99 100
67 59 51 43 42 48 49 33 26 24 17 18 46 65 78 90 88 99 97 96 100 100 99 71 54 49 47 34 63 97 99 100 98 100 100 99 99 100 100 100 100 99 99
79 56 46 50 52 50 52 42 25 29 30 18 27 58 64 80 96 98 98 99 99 99 78 56 55 53 40 41 94 99 98 100 98 98 94 95 98 98 100 99 100 100 99
89 82 52 68 77 82 53 39 34 30 52 55 41 78 88 92 98 94 96 95 69 60 55 67 58 86 67 100 100 100 98 99 96 93 96 98 87 85 98 88 85 97 97
86 74 65 66 85 89 82 71 50 55 77 78 78 80 87 98 98 99 98 72 73 70 58 56 80 70 99 99 99 98 84 81 82 91 88 84 78 76 77 78 79 83 92
100 93 92 89 88 89 81 69 68 77 86 85 89 91 98 89 91 81 63 80 54 85 93 94 100 100 99 99 97 91 93 84 69 84 81 44 49 56 47 44 55 67 77
100 100 99 91 93 76 76 74 63 60 68 78 79 87 80 66 49 52 90 78 97 100 100 100 100 100 100 100 94 96 98 71 36 27 22 18 15 14 16 24 44 62 70
89 93 91 84 70 71 73 69 70 79 87 84 92 53 87 81 56 96 100 100 100 100 100 99 99 94 90 80 64 41 20 13 13 13 12 15 11 11 10 8 14 51 47
Wind_Speed
26 22 18 17 15 16 18 16 15 14 12 11 12 10 10 9 8 9 9 8 6 5 4 4 5 6 7 9 10 10 10 12 13 14 14 13 12 12 12 12 12 13 15
30 28 26 23 20 22 20 20 18 18 16 14 13 13 12 11 11 9 11 11 9 8 7 6 6 6 8 9 11 10 10 12 13 14 14 14 14 13 12 12 11 13 14
30 31 31 30 26 26 24 22 21 21 20 18 17 16 14 14 13 10 11 12 12 11 10 8 7 6 7 8 11 11 10 12 12 12 14 14 14 15 13 11 12 13 13
33 32 32 32 30 28 28 27 25 24 23 22 21 19 17 17 16 15 13 13 14 13 13 12 10 9 8 8 9 10 10 11 11 11 12 14 14 15 14 14 13 14 14
39 39 36 34 32 30 32 31 29 26 26 25 22 21 21 20 19 18 17 14 14 15 15 15 13 12 11 10 10 10 11 11 10 11 13 14 14 15 15 15 15 16 16
43 42 41 39 37 34 33 35 34 31 27 27 26 24 24 24 24 22 20 19 16 16 16 16 16 15 14 13 13 13 12 11 12 12 12 13 14 15 15 15 16 15 16
48 46 44 42 41 40 37 36 37 35 31 29 29 29 28 28 26 25 24 22 19 17 18 17 18 18 17 16 15 15 15 14 14 15 14 14 13 15 15 14 16 16 17
53 52 49 47 45 44 42 40 40 39 34 33 34 33 33 32 32 27 25 25 23 21 20 19 20 20 20 19 18 18 18 17 17 16 16 16 16 16 16 15 15 16 18
54 55 53 51 48 47 46 44 42 41 37 35 35 37 37 36 33 29 27 26 26 25 23 22 21 22 23 22 22 21 21 20 20 19 18 15 17 16 17 20 19 16 17
51 53 55 55 52 50 49 46 45 44 41 41 39 40 40 38 37 35 33 29 28 28 25 26 24 23 25 26 26 23 23 24 24 21 21 20 19 18 17 18 19 18 18
52 52 51 52 55 54 52 50 48 48 47 45 43 41 42 40 40 38 37 32 29 27 27 26 26 25 26 26 27 27 26 26 27 26 25 24 24 22 20 21 23 22 21
54 53 54 53 52 55 56 53 51 50 50 49 47 46 45 43 42 42 40 38 35 30 31 30 30 29 28 29 27 28 27 27 26 33 31 29 29 28 25 24 26 25 23
53 53 52 54 53 53 56 57 57 54 53 56 53 50 46 45 43 43 45 39 37 40 38 36 33 33 34 35 37 31 31 32 38 35 34 34 34 34 33 28 28 27 29
41 42 44 46 49 49 51 55 56 55 54 56 44 50 49 47 43 42 40 40 43 42 43 36 36 39 39 39 35 32 36 37 37 37 35 38 39 37 36 36 31 32 33
35 34 35 37 40 42 45 49 54 59 58 57 59 57 53 53 47 43 45 41 44 48 44 37 36 28 32 34 30 29 29 31 36 40 40 44 44 42 39 40 38 36 40
35 35 35 35 36 36 36 37 42 51 56 55 54 54 61 56 45 49 47 42 46 47 48 35 28 25 30 29 27 30 32 32 28 28 37 47 48 46 44 43 44 47 44
31 34 34 35 36 38 37 36 37 39 48 53 57 55 49 41 61 55 49 45 45 47 42 34 30 28 29 27 28 35 35 33 36 36 40 50 53 50 46 46 45 49 48
20 23 26 28 31 33 34 35 35 39 39 45 51 54 53 44 50 56 44 42 36 33 35 40 37 36 32 34 36 40 41 40 41 38 45 48 52 52 53 51 55 57 58
18 20 23 26 29 32 34 36 38 37 39 40 45 44 44 52 42 42 34 36 42 42 39 38 37 33 39 40 43 41 38 44 44 43 37 38 47 54 56 56 55 59 59
18 19 21 25 28 30 30 31 34 37 35 38 42 38 38 37 45 49 37 41 42 40 37 36 37 41 46 48 39 36 40 35 36 34 42 44 45 48 49 54 58 54 57
14 15 16 17 19 24 27 30 29 28 29 33 35 37 34 35 34 37 39 39 36 33 34 43 47 48 49 45 38 39 32 38 39 42 41 41 38 38 36 40 40 44 47
16 17 17 17 20 22 26 25 25 25 24 24 28 25 28 32 33 35 36 29 34 40 46 45 48 43 42 37 42 43 47 44 46 42 42 45 40 42 44 43 43 43 46
16 17 18 20 18 18 20 23 23 21 22 23 24 28 32 31 33 34 29 35 39 43 44 43 48 39 46 43 46 45 52 49 48 46 47 50 49 51 48 48 48 47 47
20 19 21 21 18 15 13 13 15 19 22 25 27 30 28 35 28 30 35 33 36 40 35 37 35 38 37 38 41 44 44 47 50 48 50 55 52 52 51 49 48 49 50
11 11 14 15 16 17 13 11 15 20 23 26 27 30 27 30 32 29 29 37 33 30 36 34 33 33 36 41 43 45 49 51 51 50 51 53 56 57 55 53 52 51 52
18 17 8 3 6 8 12 14 14 21 21 23 22 20 22 28 33 31 28 26 27 29 33 35 37 39 43 45 46 48 50 51 53 54 55 54 57 57 60 60 56 55 55
Wind_Direction
257 252 251 253 256 269 264 262 268 271 266 271 280 280 274 267 259 259 264 261 259 260 275 304 325 343 346 343 340 336 333 334 334 333 331 328 328 329 326 329 331 338 336
255 256 255 255 261 265 263 265 267 266 266 261 260 269 277 280 274 265 268 269 269 267 267 279 303 324 331 337 333 328 326 326 332 333 333 331 326 322 318 316 322 324 328
254 256 259 258 255 259 262 259 265 266 267 268 267 261 265 271 276 269 264 270 272 267 262 264 275 291 309 322 326 323 321 321 331 336 334 335 331 326 312 308 311 315 320
252 255 255 258 259 257 259 261 261 262 262 261 263 267 265 266 269 274 267 267 266 265 263 260 266 276 287 298 315 315 309 314 325 334 334 332 332 331 326 313 307 306 313
249 252 253 256 260 258 258 260 261 261 261 262 263 264 266 265 267 268 274 269 267 267 267 263 261 266 277 289 300 306 303 304 314 322 324 324 325 323 320 312 306 305 306
248 249 252 254 259 260 256 258 259 258 260 261 261 261 263 264 265 266 268 270 269 266 262 262 262 264 268 278 286 294 296 291 301 305 308 311 315 314 312 309 304 301 301
246 249 249 252 254 255 256 256 259 258 256 258 260 260 262 264 266 267 267 270 271 270 266 261 257 255 261 269 279 285 290 288 295 301 300 300 306 306 307 308 304 304 301
244 246 248 248 252 254 254 252 255 258 257 254 257 261 262 265 268 268 270 271 271 268 268 265 262 259 256 261 270 277 281 285 291 296 296 296 303 305 307 308 305 305 303
244 243 244 246 247 251 252 252 252 254 255 258 258 258 260 265 273 269 269 269 268 266 266 268 264 260 258 257 259 265 273 276 279 284 287 280 292 296 305 308 304 304 302
246 245 244 244 246 247 249 250 251 253 256 256 258 257 261 264 268 269 271 268 270 269 268 266 267 264 261 260 262 264 268 273 276 278 284 279 280 283 293 299 304 303 305
241 245 245 242 242 245 247 248 249 250 252 254 255 258 259 262 263 264 268 265 262 264 270 268 265 265 263 263 267 268 268 270 274 273 277 278 271 272 280 286 291 291 296
240 241 243 244 242 242 244 247 249 250 251 254 253 254 257 259 262 266 268 267 269 263 261 261 263 262 261 265 264 267 268 266 267 278 276 277 274 269 266 274 280 281 285
241 243 244 245 245 243 242 244 247 248 251 249 253 253 255 256 256 262 262 269 265 269 270 267 265 272 260 253 255 256 267 273 270 271 275 275 272 267 265 267 269 267 277
240 245 247 246 246 246 245 246 244 248 248 243 248 255 256 254 258 260 263 265 269 270 270 268 267 270 264 269 257 256 262 269 274 264 272 274 269 266 263 262 262 261 271
238 240 243 245 247 247 249 246 244 244 249 249 249 250 256 256 255 255 259 258 262 268 264 269 272 265 269 262 248 251 262 273 264 258 265 271 271 268 265 260 259 260 266
239 240 243 248 251 252 249 247 246 245 244 246 251 251 246 257 260 253 254 260 255 264 263 276 272 267 271 268 279 295 274 268 266 272 276 271 268 268 265 260 261 266 261
237 240 244 247 252 253 251 247 245 246 245 245 248 251 244 252 248 254 253 255 259 262 257 262 271 275 274 283 296 292 276 265 268 265 266 263 264 268 268 267 268 269 271
242 244 246 247 248 251 254 254 250 243 244 248 247 249 251 256 248 254 260 254 250 252 257 265 274 274 283 288 294 276 275 277 273 281 272 268 262 263 266 269 270 272 275
248 247 248 249 250 251 251 253 253 250 243 243 244 249 254 250 259 249 246 246 251 253 262 267 275 271 277 277 277 270 274 274 273 279 271 273 268 266 267 264 268 270 272
244 247 252 253 254 252 251 252 252 252 247 242 240 242 246 254 257 252 255 258 251 256 261 270 272 279 281 275 277 285 284 279 284 272 279 285 281 279 277 278 278 279 273
250 263 260 259 261 259 251 251 250 248 248 245 239 236 245 249 249 248 252 258 254 264 268 265 265 270 277 279 284 286 278 273 274 288 284 282 288 281 284 280 270 272 272
266 264 255 264 280 270 260 250 248 249 247 241 231 234 241 244 245 244 247 255 260 260 260 265 277 277 274 270 266 272 272 281 284 276 278 277 280 281 280 279 279 277 279
256 262 263 259 281 274 263 254 241 238 233 225 228 233 241 243 249 243 240 246 255 260 268 274 266 271 268 275 270 270 277 285 285 284 282 281 279 282 281 276 273 272 273
269 265 267 267 272 268 263 268 243 240 234 233 234 237 243 248 256 258 262 267 263 269 270 264 260 260 266 268 276 279 277 279 284 283 283 283 283 282 281 280 278 278 277
349 304 287 274 264 252 240 231 234 252 253 248 252 249 249 257 261 264 263 259 261 256 267 268 269 272 276 278 280 278 280 282 283 284 284 285 286 285 283 282 282 280 278
48 47 37 317 277 261 245 213 228 241 246 243 254 260 257 255 259 253 254 251 259 267 269 272 274 276 276 277 280 282 284 284 284 286 285 283 283 284 284 282 279 275 274